| time (UTC) | temp F | wind direction | speed MPH | gust MPH | rain 1hr in | rain 24hr in | rain mn in | humidity % | barometer mb |
| 20260507223010 | 89 | 129 | 1.0 | 4.0 | 0.00 | 0.00 | 0.00 | 59 | 1013.3 |
| 20260507221522 | 89 | 141 | 1.0 | 4.0 | 0.00 | 0.00 | 0.00 | 57 | 1013.3 |
| 20260507220021 | 90 | 107 | 2.0 | 5.0 | 0.00 | 0.00 | 0.00 | 53 | 1013.1 |
| 20260507214503 | 91 | 151 | 3.0 | 9.0 | 0.00 | 0.00 | 0.00 | 50 | 1013.1 |
| 20260507213016 | 91 | 156 | 1.0 | 4.0 | 0.00 | 0.00 | 0.00 | 53 | 1013.0 |
| 20260507211517 | 92 | 148 | 1.0 | 5.0 | 0.00 | 0.00 | 0.00 | 52 | 1012.9 |
| 20260507210025 | 92 | 146 | 1.0 | 4.0 | 0.00 | 0.00 | 0.00 | 51 | 1013.2 |
| 20260507204522 | 93 | 140 | 1.0 | 4.0 | 0.00 | 0.00 | 0.00 | 50 | 1013.2 |
| 20260507203008 | 95 | 84 | 4.0 | 8.0 | 0.00 | 0.00 | 0.00 | 45 | 1013.3 |
| 20260507201511 | 95 | 123 | 0.0 | 3.0 | 0.00 | 0.00 | 0.00 | 40 | 1013.4 |
| 20260507200018 | 95 | 86 | 1.0 | 3.0 | 0.00 | 0.00 | 0.00 | 39 | 1013.4 |
| 20260507194531 | 94 | 101 | 1.0 | 4.0 | 0.00 | 0.00 | 0.00 | 39 | 1013.7 |
| 20260507193024 | 96 | 339 | 0.0 | 3.0 | 0.00 | 0.00 | 0.00 | 39 | 1013.8 |
| 20260507191508 | 96 | 240 | 1.0 | 2.0 | 0.00 | 0.00 | 0.00 | 41 | 1014.1 |
| 20260507190019 | 95 | 279 | 0.0 | 3.0 | 0.00 | 0.00 | 0.00 | 40 | 1014.3 |
| 20260507184526 | 95 | 171 | 1.0 | 2.0 | 0.00 | 0.00 | 0.00 | 40 | 1014.4 |
| 20260507183030 | 94 | 103 | 1.0 | 4.0 | 0.00 | 0.00 | 0.00 | 39 | 1014.7 |
| 20260507181506 | 94 | 263 | 1.0 | 2.0 | 0.00 | 0.00 | 0.00 | 42 | 1015.0 |
| 20260507180018 | 94 | 214 | 1.0 | 3.0 | 0.00 | 0.00 | 0.00 | 43 | 1015.1 |
| 20260507174519 | 93 | 280 | 0.0 | 4.0 | 0.00 | 0.00 | 0.00 | 41 | 1015.3 |
| 20260507173040 | 93 | 288 | 0.0 | 4.0 | 0.00 | 0.00 | 0.00 | 38 | 1015.6 |
| 20260507171529 | 92 | 172 | 0.0 | 2.0 | 0.00 | 0.00 | 0.00 | 40 | 1015.7 |
| 20260507170019 | 91 | 191 | 0.0 | 2.0 | 0.00 | 0.00 | 0.00 | 46 | 1015.8 |
| 20260507164522 | 90 | 221 | 0.0 | 2.0 | 0.00 | 0.00 | 0.00 | 46 | 1016.0 |
| 20260507163020 | 90 | 175 | 0.0 | 3.0 | 0.00 | 0.00 | 0.00 | 44 | 1016.3 |
| 20260507161526 | 90 | 59 | 0.0 | 2.0 | 0.00 | 0.00 | 0.00 | 45 | 1016.5 |
| 20260507160028 | 89 | 208 | 0.0 | 2.0 | 0.00 | 0.00 | 0.00 | 49 | 1016.8 |
| 20260507154515 | 88 | 204 | 0.0 | 2.0 | 0.00 | 0.00 | 0.00 | 55 | 1017.0 |
| 20260507153020 | 87 | 265 | 0.0 | 3.0 | 0.00 | 0.00 | 0.00 | 56 | 1016.9 |
| 20260507151524 | 86 | 262 | 0.0 | 2.0 | 0.00 | 0.00 | 0.00 | 58 | 1017.1 |
| 20260507150032 | 85 | 286 | 0.0 | 2.0 | 0.00 | 0.00 | 0.00 | 61 | 1017.1 |
| 20260507144512 | 85 | 189 | 0.0 | 2.0 | 0.00 | 0.00 | 0.00 | 63 | 1017.2 |
| 20260507143022 | 84 | 252 | 0.0 | 2.0 | 0.00 | 0.00 | 0.00 | 68 | 1017.2 |
| 20260507141523 | 84 | 171 | 0.0 | 0.0 | 0.00 | 0.00 | 0.00 | 67 | 1017.0 |
| 20260507140023 | 83 | 234 | 0.0 | 4.0 | 0.00 | 0.00 | 0.00 | 69 | 1017.1 |
| 20260507134526 | 82 | 234 | 0.0 | 0.0 | 0.00 | 0.00 | 0.00 | 71 | 1017.0 |
| 20260507133021 | 82 | 104 | 0.0 | 2.0 | 0.00 | 0.00 | 0.00 | 72 | 1017.1 |
| 20260507131514 | 80 | 82 | 0.0 | 2.0 | 0.00 | 0.00 | 0.00 | 75 | 1017.1 |
| 20260507130004 | 79 | 302 | 0.0 | 0.0 | 0.00 | 0.00 | 0.00 | 76 | 1017.0 |
| 20260507124513 | 78 | 242 | 0.0 | 2.0 | 0.00 | 0.00 | 0.00 | 77 | 1017.0 |
| 20260507123012 | 77 | 333 | 0.0 | 1.0 | 0.00 | 0.00 | 0.00 | 79 | 1017.0 |
| 20260507121518 | 76 | 227 | 0.0 | 2.0 | 0.00 | 0.00 | 0.00 | 79 | 1017.0 |
| 20260507120007 | 74 | 10 | 0.0 | 2.0 | 0.00 | 0.00 | 0.00 | 82 | 1016.8 |
| 20260507114509 | 73 | 15 | 0.0 | 0.0 | 0.00 | 0.00 | 0.00 | 85 | 1016.6 |
| 20260507113034 | 72 | 254 | 0.0 | 0.0 | 0.00 | 0.00 | 0.00 | 88 | 1016.3 |
| 20260507111520 | 71 | 63 | 0.0 | 0.0 | 0.00 | 0.00 | 0.00 | 90 | 1016.0 |
| 20260507110004 | 71 | 79 | 0.0 | 0.0 | 0.00 | 0.00 | 0.00 | 89 | 1015.9 |
| 20260507104506 | 70 | 142 | 0.0 | 0.0 | 0.00 | 0.00 | 0.00 | 89 | 1015.8 |
| 20260507103017 | 71 | 142 | 0.0 | 0.0 | 0.00 | 0.00 | 0.00 | 88 | 1015.5 |
| 20260507101518 | 71 | 86 | 0.0 | 0.0 | 0.00 | 0.00 | 0.00 | 88 | 1015.2 |
| 20260507100021 | 71 | 86 | 0.0 | 0.0 | 0.00 | 0.00 | 0.00 | 87 | 1015.2 |
| 20260507094505 | 71 | 86 | 0.0 | 0.0 | 0.00 | 0.00 | 0.00 | 87 | 1015.1 |
| 20260507093009 | 71 | 86 | 0.0 | 0.0 | 0.00 | 0.00 | 0.00 | 86 | 1015.0 |
| 20260507091514 | 71 | 86 | 0.0 | 0.0 | 0.00 | 0.00 | 0.00 | 86 | 1015.0 |
| 20260507090022 | 71 | 86 | 0.0 | 0.0 | 0.00 | 0.00 | 0.00 | 86 | 1015.1 |
| 20260507084534 | 71 | 86 | 0.0 | 0.0 | 0.00 | 0.00 | 0.00 | 86 | 1014.9 |
| 20260507083008 | 71 | 86 | 0.0 | 0.0 | 0.00 | 0.00 | 0.00 | 86 | 1014.9 |
| 20260507081520 | 71 | 86 | 0.0 | 0.0 | 0.00 | 0.00 | 0.00 | 86 | 1014.9 |
| 20260507080021 | 72 | 86 | 0.0 | 0.0 | 0.00 | 0.00 | 0.00 | 83 | 1015.0 |
| 20260507074522 | 72 | 86 | 0.0 | 0.0 | 0.00 | 0.00 | 0.00 | 83 | 1015.1 |
| 20260507073005 | 72 | 86 | 0.0 | 0.0 | 0.00 | 0.00 | 0.00 | 83 | 1015.3 |
| 20260507071512 | 73 | 86 | 0.0 | 0.0 | 0.00 | 0.00 | 0.00 | 82 | 1015.3 |
| 20260507070016 | 73 | 86 | 0.0 | 0.0 | 0.00 | 0.00 | 0.00 | 80 | 1015.5 |
| 20260507064523 | 73 | 86 | 0.0 | 0.0 | 0.00 | 0.00 | 0.00 | 80 | 1015.6 |
| 20260507063028 | 74 | 86 | 0.0 | 0.0 | 0.00 | 0.00 | 0.00 | 79 | 1015.6 |
| 20260507061510 | 74 | 86 | 0.0 | 0.0 | 0.00 | 0.00 | 0.00 | 77 | 1015.7 |
| 20260507060014 | 74 | 86 | 0.0 | 0.0 | 0.00 | 0.00 | 0.00 | 76 | 1016.0 |
| 20260507054520 | 75 | 86 | 0.0 | 0.0 | 0.00 | 0.00 | 0.00 | 75 | 1016.2 |
| 20260507053026 | 75 | 86 | 0.0 | 0.0 | 0.00 | 0.00 | 0.00 | 75 | 1016.1 |
| 20260507051526 | 76 | 86 | 0.0 | 0.0 | 0.00 | 0.00 | 0.00 | 74 | 1016.3 |
| 20260507050024 | 76 | 86 | 0.0 | 0.0 | 0.00 | 0.00 | 0.00 | 73 | 1016.3 |
| 20260507044520 | 76 | 61 | 0.0 | 0.0 | 0.00 | 0.00 | 0.00 | 73 | 1016.4 |
| 20260507043027 | 76 | 61 | 0.0 | 0.0 | 0.00 | 0.00 | 0.00 | 73 | 1016.4 |
| 20260507041528 | 77 | 61 | 0.0 | 0.0 | 0.00 | 0.00 | 0.00 | 73 | 1016.6 |
| 20260507040012 | 77 | 61 | 0.0 | 0.0 | 0.00 | 0.00 | 0.00 | 72 | 1016.6 |
| 20260507034522 | 77 | 61 | 0.0 | 0.0 | 0.00 | 0.00 | 0.00 | 72 | 1016.6 |
| 20260507033021 | 77 | 107 | 0.0 | 0.0 | 0.00 | 0.00 | 0.00 | 72 | 1016.7 |
| 20260507031526 | 78 | 107 | 0.0 | 0.0 | 0.00 | 0.00 | 0.00 | 71 | 1016.7 |
| 20260507030028 | 78 | 129 | 0.0 | 0.0 | 0.00 | 0.00 | 0.00 | 71 | 1016.7 |
| 20260507024515 | 78 | 129 | 0.0 | 0.0 | 0.00 | 0.00 | 0.00 | 70 | 1016.7 |
| 20260507023016 | 78 | 117 | 0.0 | 0.0 | 0.00 | 0.00 | 0.00 | 69 | 1016.7 |
| 20260507021523 | 79 | 117 | 0.0 | 0.0 | 0.00 | 0.00 | 0.00 | 68 | 1016.8 |
| 20260507020043 | 79 | 138 | 0.0 | 0.0 | 0.00 | 0.00 | 0.00 | 67 | 1016.7 |
| 20260507014526 | 79 | 73 | 0.0 | 2.0 | 0.00 | 0.00 | 0.00 | 66 | 1016.6 |
| 20260507013020 | 80 | 157 | 0.0 | 2.0 | 0.00 | 0.00 | 0.00 | 65 | 1016.7 |
| 20260507011534 | 80 | 144 | 0.0 | 3.0 | 0.00 | 0.00 | 0.00 | 63 | 1016.7 |
| 20260507010029 | 80 | 124 | 0.0 | 2.0 | 0.00 | 0.00 | 0.00 | 60 | 1016.7 |
| 20260507004512 | 80 | 93 | 0.0 | 3.0 | 0.00 | 0.00 | 0.00 | 59 | 1016.6 |
| 20260507003012 | 81 | 156 | 0.0 | 4.0 | 0.00 | 0.00 | 0.00 | 60 | 1016.6 |
| 20260507001544 | 81 | 85 | 1.0 | 3.0 | 0.00 | 0.00 | 0.00 | 60 | 1016.5 |
| 20260507000024 | 81 | 76 | 1.0 | 6.0 | 0.00 | 0.00 | 0.00 | 63 | 1016.4 |
| 20260506234505 | 82 | 104 | 1.0 | 6.0 | 0.00 | 0.00 | 0.00 | 62 | 1016.3 |
| 20260506233012 | 82 | 111 | 1.0 | 7.0 | 0.00 | 0.00 | 0.00 | 63 | 1016.1 |
| 20260506231518 | 83 | 96 | 1.0 | 8.0 | 0.00 | 0.00 | 0.00 | 62 | 1016.0 |
| 20260506230026 | 84 | 119 | 0.0 | 6.0 | 0.00 | 0.00 | 0.00 | 62 | 1016.2 |
| 20260506224524 | 84 | 77 | 1.0 | 9.0 | 0.00 | 0.00 | 0.00 | 61 | 1015.9 |